Time,TemperatureF,DewpointF,PressureIn,WindDirection,WindDirectionDegrees,WindSpeedMPH,WindSpeedGustMPH,Humidity,HourlyPrecipIn,Conditions,Clouds,dailyrainin,SoftwareType,DateUTC
2013-02-28 00:03:00,28.4,24.5,30.37,WSW,248,0.0,2.0,85,0.00,,,0.00,Wunderground v.1.15,2013-02-28 07:03:00,
2013-02-28 00:08:00,28.3,24.4,30.38,WSW,248,0.0,2.0,85,0.00,,,0.00,Wunderground v.1.15,2013-02-28 07:08:00,
2013-02-28 00:13:00,28.3,24.4,30.38,WSW,248,0.0,2.0,85,0.00,,,0.00,Wunderground v.1.15,2013-02-28 07:13:00,
2013-02-28 00:19:00,28.2,24.3,30.38,WSW,248,0.0,2.0,85,0.00,,,0.00,Wunderground v.1.15,2013-02-28 07:19:00,
2013-02-28 00:25:00,28.2,24.3,30.37,WSW,248,0.0,2.0,85,0.00,,,0.00,Wunderground v.1.15,2013-02-28 07:25:00,
2013-02-28 00:31:00,28.2,24.6,30.37,WSW,248,0.0,2.0,86,0.00,,,0.00,Wunderground v.1.15,2013-02-28 07:31:00,
2013-02-28 00:36:00,28.2,24.6,30.37,WSW,248,0.0,2.0,86,0.00,,,0.00,Wunderground v.1.15,2013-02-28 07:36:00,
2013-02-28 00:42:00,28.3,24.9,30.37,WSW,248,0.0,2.0,87,0.00,,,0.00,Wunderground v.1.15,2013-02-28 07:42:00,
2013-02-28 00:48:00,28.2,24.8,30.36,WSW,248,0.0,2.0,87,0.00,,,0.00,Wunderground v.1.15,2013-02-28 07:48:00,
2013-02-28 00:54:00,28.2,24.8,30.36,WSW,248,0.0,2.0,87,0.00,,,0.00,Wunderground v.1.15,2013-02-28 07:54:00,
2013-02-28 01:00:00,28.1,24.7,30.36,WSW,248,0.0,2.0,87,0.00,,,0.00,Wunderground v.1.15,2013-02-28 08:00:00,
2013-02-28 01:05:00,28.2,24.6,30.36,WSW,248,0.0,2.0,86,0.00,,,0.00,Wunderground v.1.15,2013-02-28 08:05:00,
2013-02-28 01:11:00,28.3,24.6,30.36,WSW,248,0.0,2.0,86,0.00,,,0.00,Wunderground v.1.15,2013-02-28 08:11:00,
2013-02-28 01:16:00,28.3,24.9,30.36,WSW,248,0.0,2.0,87,0.00,,,0.00,Wunderground v.1.15,2013-02-28 08:16:00,
2013-02-28 01:22:00,28.5,25.1,30.35,WSW,248,0.0,2.0,87,0.00,,,0.00,Wunderground v.1.15,2013-02-28 08:22:00,
2013-02-28 01:28:00,28.5,24.8,30.35,WSW,248,0.0,2.0,86,0.00,,,0.00,Wunderground v.1.15,2013-02-28 08:28:00,
2013-02-28 01:33:00,28.5,24.8,30.35,WSW,248,0.0,2.0,86,0.00,,,0.00,Wunderground v.1.15,2013-02-28 08:33:00,
2013-02-28 01:39:00,28.5,24.8,30.36,WSW,248,0.0,2.0,86,0.00,,,0.00,Wunderground v.1.15,2013-02-28 08:39:00,
2013-02-28 01:45:00,28.5,24.8,30.36,WSW,248,0.0,2.0,86,0.00,,,0.00,Wunderground v.1.15,2013-02-28 08:45:00,
2013-02-28 01:50:00,28.4,24.7,30.36,WSW,248,0.0,2.0,86,0.00,,,0.00,Wunderground v.1.15,2013-02-28 08:50:00,
2013-02-28 01:56:00,28.4,24.7,30.36,WSW,248,0.0,2.0,86,0.00,,,0.00,Wunderground v.1.15,2013-02-28 08:56:00,
2013-02-28 02:01:00,28.3,24.6,30.36,WSW,248,0.0,2.0,86,0.00,,,0.00,Wunderground v.1.15,2013-02-28 09:01:00,
2013-02-28 02:07:00,28.1,24.5,30.36,WSW,248,0.0,2.0,86,0.00,,,0.00,Wunderground v.1.15,2013-02-28 09:07:00,
2013-02-28 02:13:00,27.9,24.3,30.36,WSW,248,1.0,2.0,86,0.00,,,0.00,Wunderground v.1.15,2013-02-28 09:13:00,
2013-02-28 02:19:00,27.8,24.2,30.36,WSW,248,1.0,2.0,86,0.00,,,0.00,Wunderground v.1.15,2013-02-28 09:19:00,
2013-02-28 02:25:00,27.8,24.4,30.35,WSW,248,0.0,2.0,87,0.00,,,0.00,Wunderground v.1.15,2013-02-28 09:25:00,
2013-02-28 02:31:00,27.9,24.5,30.35,WSW,248,0.0,2.0,87,0.00,,,0.00,Wunderground v.1.15,2013-02-28 09:31:00,
2013-02-28 02:37:00,27.9,24.5,30.35,WSW,248,0.0,2.0,87,0.00,,,0.00,Wunderground v.1.15,2013-02-28 09:37:00,
2013-02-28 02:42:00,27.9,24.5,30.35,WSW,248,0.0,2.0,87,0.00,,,0.00,Wunderground v.1.15,2013-02-28 09:42:00,
2013-02-28 02:48:00,28.0,24.9,30.35,WSW,248,0.0,2.0,88,0.00,,,0.00,Wunderground v.1.15,2013-02-28 09:48:00,
2013-02-28 02:53:00,27.9,24.8,30.35,WSW,248,0.0,2.0,88,0.00,,,0.00,Wunderground v.1.15,2013-02-28 09:53:00,
2013-02-28 02:58:00,28.0,24.9,30.35,WSW,248,0.0,2.0,88,0.00,,,0.00,Wunderground v.1.15,2013-02-28 09:58:00,
2013-02-28 03:04:00,28.0,24.9,30.35,WSW,248,0.0,2.0,88,0.00,,,0.00,Wunderground v.1.15,2013-02-28 10:04:00,
2013-02-28 03:09:00,28.0,24.9,30.35,WSW,248,0.0,2.0,88,0.00,,,0.00,Wunderground v.1.15,2013-02-28 10:09:00,
2013-02-28 03:15:00,28.0,24.9,30.35,WSW,248,0.0,2.0,88,0.00,,,0.00,Wunderground v.1.15,2013-02-28 10:15:00,
2013-02-28 03:20:00,28.0,24.9,30.35,WSW,248,0.0,2.0,88,0.00,,,0.00,Wunderground v.1.15,2013-02-28 10:20:00,
2013-02-28 03:25:00,28.0,24.6,30.35,WSW,248,0.0,2.0,87,0.00,,,0.00,Wunderground v.1.15,2013-02-28 10:25:00,
2013-02-28 03:31:00,28.0,24.9,30.35,WSW,248,0.0,2.0,88,0.00,,,0.00,Wunderground v.1.15,2013-02-28 10:31:00,
2013-02-28 03:37:00,28.0,24.9,30.34,WSW,248,0.0,2.0,88,0.00,,,0.00,Wunderground v.1.15,2013-02-28 10:37:00,
2013-02-28 03:42:00,28.0,24.9,30.34,WSW,248,0.0,2.0,88,0.00,,,0.00,Wunderground v.1.15,2013-02-28 10:42:00,
2013-02-28 03:47:00,27.9,24.5,30.34,WSW,248,0.0,2.0,87,0.00,,,0.00,Wunderground v.1.15,2013-02-28 10:47:00,
2013-02-28 03:53:00,27.9,24.8,30.34,WSW,248,0.0,2.0,88,0.00,,,0.00,Wunderground v.1.15,2013-02-28 10:53:00,
2013-02-28 03:59:00,27.9,24.8,30.34,WSW,248,0.0,2.0,88,0.00,,,0.00,Wunderground v.1.15,2013-02-28 10:59:00,
2013-02-28 04:05:00,27.9,24.8,30.34,WSW,248,0.0,2.0,88,0.00,,,0.00,Wunderground v.1.15,2013-02-28 11:05:00,
2013-02-28 04:11:00,28.0,24.6,30.34,WSW,248,0.0,2.0,87,0.00,,,0.00,Wunderground v.1.15,2013-02-28 11:11:00,
2013-02-28 04:16:00,28.0,24.9,30.34,WSW,248,0.0,2.0,88,0.00,,,0.00,Wunderground v.1.15,2013-02-28 11:16:00,
2013-02-28 04:22:00,28.0,24.9,30.34,WSW,248,0.0,2.0,88,0.00,,,0.00,Wunderground v.1.15,2013-02-28 11:22:00,
2013-02-28 04:28:00,28.0,24.6,30.34,WSW,248,0.0,2.0,87,0.00,,,0.00,Wunderground v.1.15,2013-02-28 11:28:00,
2013-02-28 04:33:00,27.9,24.5,30.34,WSW,248,0.0,2.0,87,0.00,,,0.00,Wunderground v.1.15,2013-02-28 11:33:00,
2013-02-28 04:38:00,27.8,24.4,30.35,WSW,248,0.0,2.0,87,0.00,,,0.00,Wunderground v.1.15,2013-02-28 11:38:00,
2013-02-28 04:44:00,27.7,24.3,30.35,WSW,248,0.0,2.0,87,0.00,,,0.00,Wunderground v.1.15,2013-02-28 11:44:00,
2013-02-28 04:50:00,27.6,24.2,30.35,WSW,248,0.0,2.0,87,0.00,,,0.00,Wunderground v.1.15,2013-02-28 11:50:00,
2013-02-28 04:55:00,27.6,24.5,30.35,WSW,248,0.0,2.0,88,0.00,,,0.00,Wunderground v.1.15,2013-02-28 11:55:00,
2013-02-28 05:00:00,27.6,24.5,30.35,WSW,248,0.0,2.0,88,0.00,,,0.00,Wunderground v.1.15,2013-02-28 12:00:00,
2013-02-28 05:06:00,27.6,24.5,30.35,WSW,248,0.0,2.0,88,0.00,,,0.00,Wunderground v.1.15,2013-02-28 12:06:00,
2013-02-28 05:12:00,27.6,24.8,30.36,WSW,248,0.0,2.0,89,0.00,,,0.00,Wunderground v.1.15,2013-02-28 12:12:00,
2013-02-28 05:17:00,27.7,24.9,30.36,WSW,248,0.0,2.0,89,0.00,,,0.00,Wunderground v.1.15,2013-02-28 12:17:00,
2013-02-28 05:23:00,27.7,24.9,30.36,WSW,248,0.0,2.0,89,0.00,,,0.00,Wunderground v.1.15,2013-02-28 12:23:00,
2013-02-28 05:29:00,27.8,25.0,30.36,WSW,248,0.0,2.0,89,0.00,,,0.00,Wunderground v.1.15,2013-02-28 12:29:00,
2013-02-28 05:34:00,27.8,25.0,30.37,WSW,248,0.0,2.0,89,0.00,,,0.00,Wunderground v.1.15,2013-02-28 12:34:00,
2013-02-28 05:40:00,27.9,25.1,30.37,WSW,248,0.0,2.0,89,0.00,,,0.00,Wunderground v.1.15,2013-02-28 12:40:00,
2013-02-28 05:45:00,28.0,25.2,30.37,WSW,248,0.0,2.0,89,0.00,,,0.00,Wunderground v.1.15,2013-02-28 12:45:00,
2013-02-28 05:51:00,28.1,25.5,30.37,WSW,248,0.0,2.0,90,0.00,,,0.00,Wunderground v.1.15,2013-02-28 12:51:00,
2013-02-28 05:57:00,28.2,25.6,30.37,WSW,248,0.0,2.0,90,0.00,,,0.00,Wunderground v.1.15,2013-02-28 12:57:00,
2013-02-28 06:03:00,28.3,25.7,30.38,WSW,248,0.0,2.0,90,0.00,,,0.00,Wunderground v.1.15,2013-02-28 13:03:00,
2013-02-28 06:09:00,28.3,25.7,30.38,WSW,248,0.0,2.0,90,0.00,,,0.00,Wunderground v.1.15,2013-02-28 13:09:00,
2013-02-28 06:14:00,28.3,25.7,30.38,WSW,248,0.0,2.0,90,0.00,,,0.00,Wunderground v.1.15,2013-02-28 13:14:00,
2013-02-28 06:20:00,28.3,25.7,30.38,WSW,248,0.0,2.0,90,0.00,,,0.00,Wunderground v.1.15,2013-02-28 13:20:00,
2013-02-28 06:26:00,28.3,25.7,30.38,WSW,248,0.0,2.0,90,0.00,,,0.00,Wunderground v.1.15,2013-02-28 13:26:00,
2013-02-28 06:32:00,28.4,26.1,30.38,WSW,248,0.0,2.0,91,0.00,,,0.00,Wunderground v.1.15,2013-02-28 13:32:00,
2013-02-28 06:38:00,28.4,26.1,30.38,WSW,248,0.0,2.0,91,0.00,,,0.00,Wunderground v.1.15,2013-02-28 13:38:00,
2013-02-28 06:43:00,28.3,26.0,30.38,WSW,248,0.0,2.0,91,0.00,,,0.00,Wunderground v.1.15,2013-02-28 13:43:00,
2013-02-28 06:49:00,28.3,26.0,30.38,WSW,248,0.0,2.0,91,0.00,,,0.00,Wunderground v.1.15,2013-02-28 13:49:00,
2013-02-28 06:55:00,28.2,25.9,30.38,WSW,248,0.0,2.0,91,0.00,,,0.00,Wunderground v.1.15,2013-02-28 13:55:00,
2013-02-28 07:01:00,28.1,25.8,30.39,WSW,248,0.0,2.0,91,0.00,,,0.00,Wunderground v.1.15,2013-02-28 14:01:00,
2013-02-28 07:07:00,28.1,25.8,30.39,WSW,248,0.0,2.0,91,0.00,,,0.00,Wunderground v.1.15,2013-02-28 14:07:00,
2013-02-28 07:13:00,28.0,25.7,30.39,WSW,248,0.0,2.0,91,0.00,,,0.00,Wunderground v.1.15,2013-02-28 14:13:00,
2013-02-28 07:18:00,28.0,25.7,30.39,WSW,248,0.0,2.0,91,0.00,,,0.00,Wunderground v.1.15,2013-02-28 14:18:00,
2013-02-28 07:24:00,28.0,25.7,30.39,WSW,248,0.0,2.0,91,0.00,,,0.00,Wunderground v.1.15,2013-02-28 14:24:00,
2013-02-28 07:30:00,28.0,25.7,30.39,WSW,248,0.0,2.0,91,0.00,,,0.00,Wunderground v.1.15,2013-02-28 14:30:00,
2013-02-28 07:35:00,28.0,25.7,30.39,WSW,248,0.0,2.0,91,0.00,,,0.00,Wunderground v.1.15,2013-02-28 14:35:00,
2013-02-28 07:41:00,28.0,25.7,30.39,WSW,248,0.0,2.0,91,0.00,,,0.00,Wunderground v.1.15,2013-02-28 14:41:00,
2013-02-28 07:46:00,28.0,25.7,30.39,WSW,248,0.0,2.0,91,0.00,,,0.00,Wunderground v.1.15,2013-02-28 14:46:00,
2013-02-28 07:52:00,28.1,26.1,30.40,WSW,248,0.0,2.0,92,0.00,,,0.00,Wunderground v.1.15,2013-02-28 14:52:00,
2013-02-28 07:58:00,28.2,26.2,30.40,WSW,248,0.0,2.0,92,0.00,,,0.00,Wunderground v.1.15,2013-02-28 14:58:00,
2013-02-28 08:04:00,28.3,26.3,30.40,WSW,248,0.0,2.0,92,0.00,,,0.00,Wunderground v.1.15,2013-02-28 15:04:00,
2013-02-28 08:10:00,28.4,26.4,30.40,WSW,248,0.0,2.0,92,0.00,,,0.00,Wunderground v.1.15,2013-02-28 15:10:00,
2013-02-28 08:16:00,28.5,26.5,30.40,WSW,248,0.0,2.0,92,0.00,,,0.00,Wunderground v.1.15,2013-02-28 15:16:00,
2013-02-28 08:21:00,28.6,26.6,30.40,WSW,248,0.0,2.0,92,0.00,,,0.00,Wunderground v.1.15,2013-02-28 15:21:00,
2013-02-28 08:27:00,28.7,26.7,30.40,WSW,248,0.0,2.0,92,0.00,,,0.00,Wunderground v.1.15,2013-02-28 15:27:00,
2013-02-28 08:33:00,28.8,26.8,30.40,WSW,248,0.0,2.0,92,0.00,,,0.00,Wunderground v.1.15,2013-02-28 15:33:00,
2013-02-28 08:39:00,28.8,26.8,30.40,WSW,248,0.0,2.0,92,0.00,,,0.00,Wunderground v.1.15,2013-02-28 15:39:00,
2013-02-28 08:45:00,28.9,26.9,30.40,WSW,248,0.0,2.0,92,0.00,,,0.00,Wunderground v.1.15,2013-02-28 15:45:00,
2013-02-28 08:51:00,29.0,27.0,30.41,WSW,248,0.0,2.0,92,0.00,,,0.00,Wunderground v.1.15,2013-02-28 15:51:00,
2013-02-28 08:57:00,29.1,26.8,30.41,WSW,248,0.0,2.0,91,0.00,,,0.00,Wunderground v.1.15,2013-02-28 15:57:00,
2013-02-28 09:03:00,29.3,27.3,30.41,WSW,248,0.0,2.0,92,0.00,,,0.00,Wunderground v.1.15,2013-02-28 16:03:00,
2013-02-28 09:09:00,29.5,27.5,30.41,WSW,248,0.0,2.0,92,0.00,,,0.00,Wunderground v.1.15,2013-02-28 16:09:00,
2013-02-28 09:15:00,29.7,27.4,30.41,WSW,248,0.0,2.0,91,0.00,,,0.00,Wunderground v.1.15,2013-02-28 16:15:00,
2013-02-28 09:20:00,30.2,27.9,30.41,WSW,248,0.0,2.0,91,0.00,,,0.00,Wunderground v.1.15,2013-02-28 16:20:00,
2013-02-28 09:26:00,30.6,28.0,30.41,WSW,248,0.0,2.0,90,0.00,,,0.00,Wunderground v.1.15,2013-02-28 16:26:00,
2013-02-28 09:32:00,30.8,27.9,30.41,WSW,248,0.0,2.0,89,0.00,,,0.00,Wunderground v.1.15,2013-02-28 16:32:00,
2013-02-28 09:37:00,31.2,28.3,30.42,WSW,248,0.0,2.0,89,0.00,,,0.00,Wunderground v.1.15,2013-02-28 16:37:00,
2013-02-28 09:43:00,32.0,28.3,30.42,WSW,248,0.0,2.0,86,0.00,,,0.00,Wunderground v.1.15,2013-02-28 16:43:00,
2013-02-28 09:49:00,32.0,28.6,30.42,WSW,248,0.0,2.0,87,0.00,,,0.00,Wunderground v.1.15,2013-02-28 16:49:00,
2013-02-28 09:55:00,32.0,28.6,30.42,WSW,248,0.0,2.0,87,0.00,,,0.00,Wunderground v.1.15,2013-02-28 16:55:00,
2013-02-28 10:01:00,32.1,28.9,30.42,WSW,248,0.0,2.0,88,0.00,,,0.00,Wunderground v.1.15,2013-02-28 17:01:00,
2013-02-28 10:07:00,32.1,28.7,30.42,WSW,248,0.0,2.0,87,0.00,,,0.00,Wunderground v.1.15,2013-02-28 17:07:00,
2013-02-28 10:12:00,32.3,28.9,30.43,WSW,248,0.0,2.0,87,0.00,,,0.00,Wunderground v.1.15,2013-02-28 17:12:00,
2013-02-28 10:17:00,32.6,28.6,30.42,WSW,248,0.0,2.0,85,0.00,,,0.00,Wunderground v.1.15,2013-02-28 17:17:00,
2013-02-28 10:23:00,32.7,28.7,30.42,WSW,248,0.0,2.0,85,0.00,,,0.00,Wunderground v.1.15,2013-02-28 17:23:00,
2013-02-28 10:29:00,32.8,29.1,30.43,WSW,248,0.0,2.0,86,0.00,,,0.00,Wunderground v.1.15,2013-02-28 17:29:00,
2013-02-28 10:35:00,33.0,29.3,30.42,WSW,248,0.0,2.0,86,0.00,,,0.00,Wunderground v.1.15,2013-02-28 17:35:00,
2013-02-28 10:41:00,32.9,28.9,30.42,WSW,247,0.0,2.0,85,0.00,,,0.00,Wunderground v.1.15,2013-02-28 17:41:00,
2013-02-28 10:46:00,32.9,28.9,30.42,WSW,247,0.0,2.0,85,0.00,,,0.00,Wunderground v.1.15,2013-02-28 17:46:00,
2013-02-28 10:52:00,32.7,29.0,30.42,WSW,247,0.0,2.0,86,0.00,,,0.00,Wunderground v.1.15,2013-02-28 17:52:00,
2013-02-28 10:57:00,32.7,28.7,30.42,WNW,290,0.0,2.0,85,0.00,,,0.00,Wunderground v.1.15,2013-02-28 17:57:00,
2013-02-28 11:03:00,32.9,29.2,30.42,WNW,290,0.0,2.0,86,0.00,,,0.00,Wunderground v.1.15,2013-02-28 18:03:00,
2013-02-28 11:08:00,33.0,29.3,30.42,WNW,290,0.0,2.0,86,0.00,,,0.00,Wunderground v.1.15,2013-02-28 18:08:00,
2013-02-28 11:14:00,33.2,29.5,30.41,WNW,290,0.0,2.0,86,0.00,,,0.00,Wunderground v.1.15,2013-02-28 18:14:00,
2013-02-28 11:20:00,33.2,29.5,30.42,WNW,290,0.0,2.0,86,0.00,,,0.00,Wunderground v.1.15,2013-02-28 18:20:00,
2013-02-28 11:25:00,33.2,29.5,30.42,WNW,290,0.0,2.0,86,0.00,,,0.00,Wunderground v.1.15,2013-02-28 18:25:00,
2013-02-28 11:31:00,33.2,29.5,30.42,South,182,1.0,2.0,86,0.00,,,0.00,Wunderground v.1.15,2013-02-28 18:31:00,
2013-02-28 11:37:00,33.5,30.3,30.42,South,182,0.0,2.0,88,0.00,,,0.00,Wunderground v.1.15,2013-02-28 18:37:00,
2013-02-28 11:42:00,33.7,30.0,30.43,South,182,0.0,2.0,86,0.00,,,0.00,Wunderground v.1.15,2013-02-28 18:42:00,
2013-02-28 11:47:00,33.9,29.9,30.43,South,182,0.0,2.0,85,0.00,,,0.00,Wunderground v.1.15,2013-02-28 18:47:00,
2013-02-28 11:53:00,34.0,30.3,30.43,South,182,0.0,2.0,86,0.00,,,0.00,Wunderground v.1.15,2013-02-28 18:53:00,
2013-02-28 11:58:00,34.2,30.2,30.44,South,182,0.0,2.0,85,0.00,,,0.00,Wunderground v.1.15,2013-02-28 18:58:00,
2013-02-28 12:04:00,34.2,30.2,30.44,South,182,1.0,2.0,85,0.00,,,0.00,Wunderground v.1.15,2013-02-28 19:04:00,
2013-02-28 12:10:00,34.3,30.3,30.43,South,182,1.0,1.0,85,0.00,,,0.00,Wunderground v.1.15,2013-02-28 19:10:00,
2013-02-28 12:16:00,34.4,30.4,30.43,South,182,0.0,2.0,85,0.00,,,0.00,Wunderground v.1.15,2013-02-28 19:16:00,
2013-02-28 12:22:00,34.4,30.4,30.44,South,182,0.0,2.0,85,0.00,,,0.00,Wunderground v.1.15,2013-02-28 19:22:00,
2013-02-28 12:27:00,34.7,30.7,30.44,South,182,0.0,2.0,85,0.00,,,0.00,Wunderground v.1.15,2013-02-28 19:27:00,
2013-02-28 12:33:00,34.8,30.8,30.44,South,182,0.0,2.0,85,0.00,,,0.00,Wunderground v.1.15,2013-02-28 19:33:00,
2013-02-28 12:39:00,35.0,30.7,30.43,South,180,0.0,2.0,84,0.00,,,0.00,Wunderground v.1.15,2013-02-28 19:39:00,
2013-02-28 12:45:00,35.2,30.9,30.43,South,175,0.0,2.0,84,0.00,,,0.00,Wunderground v.1.15,2013-02-28 19:45:00,
2013-02-28 12:50:00,35.3,30.9,30.43,South,175,0.0,2.0,84,0.00,,,0.00,Wunderground v.1.15,2013-02-28 19:50:00,
2013-02-28 12:56:00,35.5,31.1,30.43,South,175,0.0,2.0,84,0.00,,,0.00,Wunderground v.1.15,2013-02-28 19:56:00,
2013-02-28 13:02:00,35.5,30.8,30.43,South,175,0.0,2.0,83,0.00,,,0.00,Wunderground v.1.15,2013-02-28 20:02:00,
2013-02-28 13:08:00,35.8,30.8,30.43,South,175,0.0,2.0,82,0.00,,,0.00,Wunderground v.1.15,2013-02-28 20:08:00,
2013-02-28 13:13:00,35.9,31.2,30.43,South,175,0.0,2.0,83,0.00,,,0.00,Wunderground v.1.15,2013-02-28 20:13:00,
2013-02-28 13:19:00,35.8,31.1,30.43,South,175,0.0,2.0,83,0.00,,,0.00,Wunderground v.1.15,2013-02-28 20:19:00,
2013-02-28 13:25:00,35.9,31.5,30.43,South,175,0.0,2.0,84,0.00,,,0.00,Wunderground v.1.15,2013-02-28 20:25:00,
2013-02-28 13:30:00,36.0,31.3,30.43,South,175,0.0,2.0,83,0.00,,,0.00,Wunderground v.1.15,2013-02-28 20:30:00,
2013-02-28 13:36:00,36.1,31.1,30.42,South,175,0.0,2.0,82,0.00,,,0.00,Wunderground v.1.15,2013-02-28 20:36:00,
2013-02-28 13:42:00,36.2,31.2,30.42,South,175,0.0,2.0,82,0.00,,,0.00,Wunderground v.1.15,2013-02-28 20:42:00,
2013-02-28 13:48:00,36.5,31.8,30.42,South,175,0.0,2.0,83,0.00,,,0.00,Wunderground v.1.15,2013-02-28 20:48:00,
2013-02-28 13:53:00,36.8,31.8,30.42,West,281,0.0,2.0,82,0.00,,,0.00,Wunderground v.1.15,2013-02-28 20:53:00,
2013-02-28 13:59:00,36.9,31.3,30.42,West,281,1.0,2.0,80,0.00,,,0.00,Wunderground v.1.15,2013-02-28 20:59:00,
2013-02-28 14:05:00,37.1,31.5,30.42,West,281,0.0,2.0,80,0.00,,,0.00,Wunderground v.1.15,2013-02-28 21:05:00,
2013-02-28 14:11:00,37.1,31.5,30.42,West,281,0.0,2.0,80,0.00,,,0.00,Wunderground v.1.15,2013-02-28 21:11:00,
2013-02-28 14:17:00,37.4,31.8,30.42,West,281,0.0,2.0,80,0.00,,,0.00,Wunderground v.1.15,2013-02-28 21:17:00,
2013-02-28 14:22:00,37.6,31.4,30.42,West,281,1.0,2.0,78,0.00,,,0.00,Wunderground v.1.15,2013-02-28 21:22:00,
2013-02-28 14:27:00,37.7,31.5,30.42,West,281,1.0,2.0,78,0.00,,,0.00,Wunderground v.1.15,2013-02-28 21:27:00,
2013-02-28 14:33:00,37.9,31.7,30.42,West,281,0.0,2.0,78,0.00,,,0.00,Wunderground v.1.15,2013-02-28 21:33:00,
2013-02-28 14:39:00,37.8,31.2,30.42,West,281,0.0,2.0,77,0.00,,,0.00,Wunderground v.1.15,2013-02-28 21:39:00,
2013-02-28 14:45:00,37.9,31.3,30.42,West,281,0.0,2.0,77,0.00,,,0.00,Wunderground v.1.15,2013-02-28 21:45:00,
2013-02-28 14:51:00,37.9,31.3,30.42,West,281,0.0,2.0,77,0.00,,,0.00,Wunderground v.1.15,2013-02-28 21:51:00,
2013-02-28 14:57:00,37.8,31.6,30.42,West,281,0.0,2.0,78,0.00,,,0.00,Wunderground v.1.15,2013-02-28 21:57:00,
2013-02-28 15:02:00,37.9,31.3,30.42,SSW,193,0.0,2.0,77,0.00,,,0.00,Wunderground v.1.15,2013-02-28 22:02:00,
2013-02-28 15:08:00,38.0,31.1,30.42,SSE,162,0.0,2.0,76,0.00,,,0.00,Wunderground v.1.15,2013-02-28 22:08:00,
2013-02-28 15:14:00,38.0,31.4,30.42,SSE,162,0.0,2.0,77,0.00,,,0.00,Wunderground v.1.15,2013-02-28 22:14:00,
2013-02-28 15:20:00,38.0,31.4,30.42,SSE,162,0.0,2.0,77,0.00,,,0.00,Wunderground v.1.15,2013-02-28 22:20:00,
2013-02-28 15:26:00,38.2,31.6,30.42,SSE,153,0.0,2.0,77,0.00,,,0.00,Wunderground v.1.15,2013-02-28 22:26:00,
2013-02-28 15:31:00,38.3,31.4,30.43,SSE,153,0.0,2.0,76,0.00,,,0.00,Wunderground v.1.15,2013-02-28 22:31:00,
2013-02-28 15:37:00,38.4,31.5,30.43,South,185,0.0,3.0,76,0.00,,,0.00,Wunderground v.1.15,2013-02-28 22:37:00,
2013-02-28 15:43:00,38.4,31.2,30.43,South,185,0.0,2.0,75,0.00,,,0.00,Wunderground v.1.15,2013-02-28 22:43:00,
2013-02-28 15:49:00,38.6,31.4,30.43,South,185,0.0,2.0,75,0.00,,,0.00,Wunderground v.1.15,2013-02-28 22:49:00,
2013-02-28 15:55:00,38.4,31.5,30.43,South,185,0.0,2.0,76,0.00,,,0.00,Wunderground v.1.15,2013-02-28 22:55:00,
2013-02-28 16:01:00,38.4,31.5,30.43,South,185,0.0,2.0,76,0.00,,,0.00,Wunderground v.1.15,2013-02-28 23:01:00,
2013-02-28 16:06:00,38.7,31.8,30.43,South,185,0.0,2.0,76,0.00,,,0.00,Wunderground v.1.15,2013-02-28 23:06:00,
2013-02-28 16:12:00,38.6,31.4,30.42,South,185,0.0,2.0,75,0.00,,,0.00,Wunderground v.1.15,2013-02-28 23:12:00,
2013-02-28 16:18:00,38.6,31.4,30.42,South,185,0.0,2.0,75,0.00,,,0.00,Wunderground v.1.15,2013-02-28 23:18:00,
2013-02-28 16:23:00,38.5,31.6,30.43,South,185,0.0,2.0,76,0.00,,,0.00,Wunderground v.1.15,2013-02-28 23:23:00,
2013-02-28 16:29:00,38.6,31.7,30.43,South,185,0.0,2.0,76,0.00,,,0.00,Wunderground v.1.15,2013-02-28 23:29:00,
2013-02-28 16:35:00,38.7,31.1,30.43,South,185,0.0,2.0,74,0.00,,,0.00,Wunderground v.1.15,2013-02-28 23:35:00,
2013-02-28 16:40:00,38.7,31.1,30.43,South,185,0.0,2.0,74,0.00,,,0.00,Wunderground v.1.15,2013-02-28 23:40:00,
2013-02-28 16:46:00,38.7,31.5,30.43,South,185,0.0,2.0,75,0.00,,,0.00,Wunderground v.1.15,2013-02-28 23:46:00,
2013-02-28 16:52:00,38.6,31.4,30.43,South,185,0.0,2.0,75,0.00,,,0.00,Wunderground v.1.15,2013-02-28 23:52:00,
2013-02-28 16:58:00,38.6,31.0,30.43,South,185,0.0,2.0,74,0.00,,,0.00,Wunderground v.1.15,2013-02-28 23:58:00,
2013-02-28 17:03:00,38.6,31.0,30.43,South,185,0.0,2.0,74,0.00,,,0.00,Wunderground v.1.15,2013-03-01 00:03:00,
2013-02-28 17:09:00,38.6,31.4,30.43,South,185,0.0,2.0,75,0.00,,,0.00,Wunderground v.1.15,2013-03-01 00:09:00,
2013-02-28 17:15:00,38.6,31.4,30.43,South,185,0.0,2.0,75,0.00,,,0.00,Wunderground v.1.15,2013-03-01 00:15:00,
2013-02-28 17:21:00,38.7,31.5,30.42,South,185,0.0,2.0,75,0.00,,,0.00,Wunderground v.1.15,2013-03-01 00:21:00,
2013-02-28 17:26:00,38.6,31.4,30.42,South,185,0.0,2.0,75,0.00,,,0.00,Wunderground v.1.15,2013-03-01 00:26:00,
2013-02-28 17:32:00,38.6,31.0,30.43,South,185,0.0,2.0,74,0.00,,,0.00,Wunderground v.1.15,2013-03-01 00:32:00,
2013-02-28 17:37:00,38.6,31.4,30.43,South,185,0.0,2.0,75,0.00,,,0.00,Wunderground v.1.15,2013-03-01 00:37:00,
2013-02-28 17:43:00,38.6,31.4,30.43,South,185,0.0,2.0,75,0.00,,,0.00,Wunderground v.1.15,2013-03-01 00:43:00,
2013-02-28 17:49:00,38.5,31.3,30.42,South,185,0.0,2.0,75,0.00,,,0.00,Wunderground v.1.15,2013-03-01 00:49:00,
2013-02-28 17:55:00,38.4,31.2,30.42,South,185,0.0,2.0,75,0.00,,,0.00,Wunderground v.1.15,2013-03-01 00:55:00,
2013-02-28 18:00:00,38.2,31.0,30.41,South,185,0.0,2.0,75,0.00,,,0.00,Wunderground v.1.15,2013-03-01 01:00:00,
2013-02-28 18:06:00,38.1,30.9,30.41,South,185,0.0,2.0,75,0.00,,,0.00,Wunderground v.1.15,2013-03-01 01:06:00,
2013-02-28 18:12:00,38.0,30.8,30.41,South,185,0.0,2.0,75,0.00,,,0.00,Wunderground v.1.15,2013-03-01 01:12:00,
2013-02-28 18:17:00,37.8,30.9,30.41,South,185,0.0,2.0,76,0.00,,,0.00,Wunderground v.1.15,2013-03-01 01:17:00,
2013-02-28 18:22:00,37.7,31.1,30.42,South,185,0.0,2.0,77,0.00,,,0.00,Wunderground v.1.15,2013-03-01 01:22:00,
2013-02-28 18:28:00,37.3,30.7,30.42,South,185,0.0,2.0,77,0.00,,,0.00,Wunderground v.1.15,2013-03-01 01:28:00,
2013-02-28 18:34:00,37.1,30.6,30.41,South,185,0.0,2.0,77,0.00,,,0.00,Wunderground v.1.15,2013-03-01 01:34:00,
2013-02-28 18:39:00,37.0,30.5,30.41,South,185,0.0,2.0,77,0.00,,,0.00,Wunderground v.1.15,2013-03-01 01:39:00,
2013-02-28 18:44:00,36.8,30.3,30.41,South,185,0.0,2.0,77,0.00,,,0.00,Wunderground v.1.15,2013-03-01 01:44:00,
2013-02-28 18:50:00,36.6,30.4,30.42,South,185,0.0,2.0,78,0.00,,,0.00,Wunderground v.1.15,2013-03-01 01:50:00,
2013-02-28 18:56:00,36.4,30.2,30.42,South,185,0.0,2.0,78,0.00,,,0.00,Wunderground v.1.15,2013-03-01 01:56:00,
2013-02-28 19:02:00,36.3,30.4,30.42,South,185,0.0,2.0,79,0.00,,,0.00,Wunderground v.1.15,2013-03-01 02:02:00,
2013-02-28 19:08:00,36.1,30.5,30.42,South,185,0.0,2.0,80,0.00,,,0.00,Wunderground v.1.15,2013-03-01 02:08:00,
2013-02-28 19:14:00,35.9,30.3,30.42,South,185,0.0,2.0,80,0.00,,,0.00,Wunderground v.1.15,2013-03-01 02:14:00,
2013-02-28 19:20:00,35.7,30.1,30.42,South,185,0.0,2.0,80,0.00,,,0.00,Wunderground v.1.15,2013-03-01 02:20:00,
2013-02-28 19:25:00,35.7,30.1,30.42,South,185,0.0,2.0,80,0.00,,,0.00,Wunderground v.1.15,2013-03-01 02:25:00,
2013-02-28 19:31:00,35.6,30.3,30.41,South,185,0.0,2.0,81,0.00,,,0.00,Wunderground v.1.15,2013-03-01 02:31:00,
2013-02-28 19:37:00,35.5,30.2,30.41,South,185,0.0,2.0,81,0.00,,,0.00,Wunderground v.1.15,2013-03-01 02:37:00,
2013-02-28 19:42:00,35.3,30.4,30.41,South,185,0.0,2.0,82,0.00,,,0.00,Wunderground v.1.15,2013-03-01 02:42:00,
2013-02-28 19:48:00,35.2,30.3,30.42,South,185,0.0,2.0,82,0.00,,,0.00,Wunderground v.1.15,2013-03-01 02:48:00,
2013-02-28 19:54:00,35.0,30.1,30.41,South,185,0.0,2.0,82,0.00,,,0.00,Wunderground v.1.15,2013-03-01 02:54:00,
2013-02-28 19:59:00,35.0,30.1,30.41,South,185,0.0,2.0,82,0.00,,,0.00,Wunderground v.1.15,2013-03-01 02:59:00,
2013-02-28 20:04:00,35.0,30.4,30.40,South,185,0.0,2.0,83,0.00,,,0.00,Wunderground v.1.15,2013-03-01 03:04:00,
2013-02-28 20:10:00,34.9,30.0,30.40,South,185,0.0,2.0,82,0.00,,,0.00,Wunderground v.1.15,2013-03-01 03:10:00,
2013-02-28 20:16:00,34.9,30.3,30.41,South,185,0.0,2.0,83,0.00,,,0.00,Wunderground v.1.15,2013-03-01 03:16:00,
2013-02-28 20:21:00,35.0,30.4,30.42,South,185,0.0,2.0,83,0.00,,,0.00,Wunderground v.1.15,2013-03-01 03:21:00,
2013-02-28 20:27:00,35.0,30.4,30.41,South,185,0.0,2.0,83,0.00,,,0.00,Wunderground v.1.15,2013-03-01 03:27:00,
2013-02-28 20:33:00,35.0,30.1,30.41,South,185,0.0,2.0,82,0.00,,,0.00,Wunderground v.1.15,2013-03-01 03:33:00,
2013-02-28 20:39:00,35.0,30.4,30.41,South,185,0.0,2.0,83,0.00,,,0.00,Wunderground v.1.15,2013-03-01 03:39:00,
2013-02-28 20:45:00,35.0,30.4,30.41,South,185,0.0,2.0,83,0.00,,,0.00,Wunderground v.1.15,2013-03-01 03:45:00,
2013-02-28 20:50:00,35.0,30.4,30.41,South,185,0.0,2.0,83,0.00,,,0.00,Wunderground v.1.15,2013-03-01 03:50:00,
2013-02-28 20:56:00,35.0,30.7,30.41,South,185,0.0,2.0,84,0.00,,,0.00,Wunderground v.1.15,2013-03-01 03:56:00,
2013-02-28 21:02:00,34.9,30.3,30.40,South,185,0.0,2.0,83,0.00,,,0.00,Wunderground v.1.15,2013-03-01 04:02:00,
2013-02-28 21:08:00,34.8,30.2,30.39,South,185,0.0,2.0,83,0.00,,,0.00,Wunderground v.1.15,2013-03-01 04:08:00,
2013-02-28 21:14:00,34.8,30.2,30.39,South,185,0.0,2.0,83,0.00,,,0.00,Wunderground v.1.15,2013-03-01 04:14:00,
2013-02-28 21:20:00,34.8,30.2,30.39,South,185,0.0,2.0,83,0.00,,,0.00,Wunderground v.1.15,2013-03-01 04:20:00,
2013-02-28 21:25:00,34.8,30.2,30.39,South,185,0.0,2.0,83,0.00,,,0.00,Wunderground v.1.15,2013-03-01 04:25:00,
2013-02-28 21:31:00,34.8,30.2,30.38,South,185,0.0,2.0,83,0.00,,,0.00,Wunderground v.1.15,2013-03-01 04:31:00,
2013-02-28 21:37:00,34.7,30.4,30.39,South,185,0.0,2.0,84,0.00,,,0.00,Wunderground v.1.15,2013-03-01 04:37:00,
2013-02-28 21:42:00,34.7,30.4,30.39,South,185,0.0,2.0,84,0.00,,,0.00,Wunderground v.1.15,2013-03-01 04:42:00,
2013-02-28 21:47:00,34.6,30.3,30.39,South,185,0.0,2.0,84,0.00,,,0.00,Wunderground v.1.15,2013-03-01 04:47:00,
2013-02-28 21:53:00,34.5,30.2,30.39,South,185,0.0,2.0,84,0.00,,,0.00,Wunderground v.1.15,2013-03-01 04:53:00,
2013-02-28 21:59:00,34.4,30.1,30.40,South,185,0.0,2.0,84,0.00,,,0.00,Wunderground v.1.15,2013-03-01 04:59:00,
2013-02-28 22:00:00,34.3,30.0,30.40,South,185,0.0,2.0,84,0.00,,,0.00,Wunderground v.1.15,2013-03-01 05:00:00,